Starlink 32557

operational
NORAD ID: 62127 Int'l Des: 2024-222 Owner: SPXS Country: US Constellation: starlink
LEOCIRCULAR

Über Starlink 32557

Beschreibung wird geladen...

Live-Position

3D-Globus wird geladen...

Nächste Überflüge

Höhenverlauf

Altitude vs Time

uPlot chart will show altitude changes over time

Zweizeiliger Elementsatz

1 62127U 24222P 25258.67504007 .00036068 00000-0 13133-2 0 9997
2 62127 43.0037 33.9616 0002006 284.1937 75.8692 15.27590825 46154
Epoch: 15. Sept. 2025 • Age: 15 hours

Aktueller Status

Höhe 489.6 km
Geschwindigkeit 7.62 km/s
Subsatellitenpunkt -29.85°S, 118.27°W
Startdatum 27. Nov. 2024
Alter 0.8 years
Typ internet

Technische Details

Klassifizierung Payload
Masse 730.00 kg
Trockenmasse 700.00 kg
Gesamtmasse 730.00 kg
Länge 0.30 m
Durchmesser 4.10 m
Spannweite 29.00 m
Form Box + pan
Hersteller SPXS
Bus-Typ Starlink V2M
Phasenstatus In Orbit
Besitzer/Staat SPXS/US

Große Konstellationen

Loading constellations...